Regional Weather Roundup
Issued by NWS

Home | Current Version | Previous Version | Graphics & Text | Print | Product List | Glossary On
Versions: 1 2 3 4 5 6 7 8 9 10 11 12 13 14 15 16 17 18 19 20 21 22 23 24 25 26 27 28 29 30 31 32 33 34 35 36 37 38 39 40 41 42 43 44 45 46 47 48 49 50
000
ASUS43 KOAX 201510
RWRNE

WEATHER ROUNDUP FOR NEBRASKA
NATIONAL WEATHER SERVICE OMAHA NE
900 AM CST MON NOV 20 2017

NOTES: SATELLITE DATA IS BEING USED TO AUGMENT CLOUD COVER ABOVE
       12000 FEET.
       "FAIR" INDICATES FEW OR NO CLOUDS BELOW 12,000 FEET WITH NO
       SIGNIFICANT WEATHER AND/OR OBSTRUCTIONS TO VISIBILITY.


NEZ001>004-019>022-054>056-201600-
NEBRASKA PANHANDLE

CITY           SKY/WX    TMP DP  RH WIND       PRES   REMARKS
SCOTTSBLUFF    CLOUDY    54   5  14 W21G29    29.70F
ALLIANCE       CLOUDY    49  10  20 W17       29.68S
CHADRON        CLOUDY    38  20  48 S7        29.67S WCI  33
GORDON         FAIR      42  14  31 W12       29.65R
KIMBALL        CLOUDY    51   4  14 W16G28    29.77R
SIDNEY         CLOUDY    49   7  18 W17       29.76F
$$

NEZ057>060-069>072-079>082-201600-
SOUTHWEST NEBRASKA

CITY           SKY/WX    TMP DP  RH WIND       PRES   REMARKS
NORTH PLATTE   CLOUDY    31  24  75 W6        29.75F WCI  25
IMPERIAL       CLOUDY    37  16  42 W13       29.76F WCI  29
LEXINGTON      CLOUDY    34  26  71 NW3       29.74F
MCCOOK         CLOUDY    31  24  75 W9        29.78S WCI  23
OGALLALA       CLOUDY    34  22  63 W13       29.74F WCI  25
$$

NEZ005>010-023>029-035>040-094-201600-
NORTH CENTRAL NEBRASKA

CITY           SKY/WX    TMP DP  RH WIND       PRES   REMARKS
VALENTINE      CLOUDY    38  20  48 W6        29.61F WCI  33
AINSWORTH      CLOUDY    40  19  42 SW9       29.62S WCI  35
BROKEN BOW     CLOUDY    40  21  46 W13       29.68F WCI  32
O`NEILL        CLOUDY    38  24  55 W8        29.62F WCI  33
ORD            CLOUDY    35  26  69 CALM      29.66F
THEDFORD       CLOUDY    46  17  30 W12       29.67R
$$

NEZ041-046>049-061>064-073>077-083>087-201600-
SOUTH CENTRAL NEBRASKA

CITY           SKY/WX    TMP DP  RH WIND       PRES   REMARKS
GRAND ISLAND   CLOUDY    40  24  53 SW12      29.72S WCI  33
AURORA         SUNNY     35  26  69 SW14      29.72S WCI  26
HASTINGS       SUNNY     34  24  67 SW8       29.74F WCI  27
HEBRON         SUNNY     41  23  47 SW14G22   29.79R
HOLDREGE       CLOUDY    40  24  54 W10G16    29.74F WCI  33
KEARNEY        CLOUDY    37  22  54 SW8       29.74S WCI  31
YORK           CLOUDY    36  27  69 SW10G16   29.73F WCI  28
$$

NEZ011>018-030>034-042>045-201600-
NORTHEAST NEBRASKA

CITY           SKY/WX    TMP DP  RH WIND       PRES   REMARKS
NORFOLK        CLOUDY    39  24  55 SW10      29.65S WCI  32
ALBION         CLOUDY    40  24  54 CALM      29.67F
COLUMBUS       CLOUDY    36  27  69 SW8       29.71S WCI  30
FREMONT        CLOUDY    40  27  59 S10       29.72R WCI  34
TEKAMAH        CLOUDY    40  26  57 S16       29.70F WCI  31
WAYNE          CLOUDY    36  26  66 S10       29.64S WCI  29
$$

NEZ050>053-065>068-078-088>093-201600-
SOUTHEAST NEBRASKA

CITY           SKY/WX    TMP DP  RH WIND       PRES   REMARKS
LINCOLN        SUNNY     43  24  47 S9G16     29.76F
OMAHA EPPLEY   PTSUNNY   42  26  53 S13       29.73F
BEATRICE       SUNNY     43  25  50 S14       29.79S
FALLS CITY     SUNNY     45  27  49 S16       29.83F
NEBRASKA CITY  SUNNY     46  27  48 SW20      29.78F
PLATTSMOUTH    SUNNY     43  28  54 S18       29.74F
$$

NEZ044-045-051>053-067-201600-
OMAHA AREA

CITY           SKY/WX    TMP DP  RH WIND       PRES   REMARKS
OMAHA EPPLEY   PTSUNNY   42  26  53 S13       29.73F
FREMONT        CLOUDY    40  27  59 S10       29.72R WCI  34
MILLARD        SUNNY     45  27  49 S7        29.74S
OFFUTT AFB     SUNNY     43  26  52 S6        29.74F
PLATTSMOUTH    SUNNY     43  28  54 S18       29.74F
WAHOO          FAIR      41  25  52 SW14G21   29.73S
$$




USA.gov is the U.S. government's official web portal to all federal, state and local government web resources and services.